Location: Drayton Valley
(53.2170°N, 114.9830°W)
Time: 03:04:58
(UTC-07:00)

N. Korean satellite - Visible Passes

Search period start: 23 January 2018 00:00
Search period end: 02 February 2018 00:00
Orbit: 458 x 515 km, 97.2° (Epoch: 22 January)

Date Brightness Start Highest point End Pass type
(mag) Time Alt. Az. Time Alt. Az. Time Alt. Az.
23 Jan 9.3 06:43:44 10° NE 06:46:29 22° E 06:49:13 10° SE visible
23 Jan 8.3 18:58:58 10° SSW 19:02:14 34° W 19:05:30 10° NNW visible
24 Jan 10.0 06:20:58 10° ENE 06:22:35 13° E 06:24:11 10° ESE visible
24 Jan 6.4 07:53:05 10° N 07:56:31 63° WNW 07:59:55 10° SSW visible
24 Jan 7.0 18:34:58 10° S 18:38:29 64° WSW 18:41:59 10° NNW visible
25 Jan 6.8 07:29:22 10° NNE 07:32:50 70° ESE 07:36:17 10° S visible
25 Jan 6.4 18:11:18 10° SSE 18:14:48 69° ENE 18:18:18 10° N visible
25 Jan 10.1 19:47:19 10° WSW 19:48:46 12° W 19:50:11 10° WNW visible
26 Jan 8.2 07:05:49 10° NNE 07:09:05 37° E 07:12:19 10° SSE visible
26 Jan 7.0 17:47:54 10° SE 17:51:11 38° ENE 17:54:26 10° N visible
26 Jan 9.4 19:22:09 10° SW 19:24:51 20° W 19:27:32 10° NW visible
27 Jan 9.3 06:42:32 10° NE 06:45:15 21° E 06:47:58 10° SE visible
27 Jan 8.3 18:57:46 10° SSW 19:01:00 35° W 19:04:15 10° NNW visible
28 Jan 10.0 06:19:47 10° ENE 06:21:20 12° E 06:22:55 10° ESE visible
28 Jan 6.4 07:51:50 10° N 07:55:16 64° WNW 07:58:43 10° SSW visible
28 Jan 6.9 18:33:46 10° S 18:37:15 65° WSW 18:40:43 10° NNW visible
29 Jan 6.9 07:28:06 10° NNE 07:31:34 68° E 07:35:03 10° S visible
29 Jan 6.4 18:10:05 10° SSE 18:13:34 67° ENE 18:17:01 10° N visible
29 Jan 10.1 19:46:03 10° WSW 19:47:30 12° W 19:48:57 10° WNW visible
30 Jan 8.3 07:04:33 10° NNE 07:07:49 36° E 07:11:04 10° SSE visible
30 Jan 9.3 19:20:53 10° SW 19:23:35 21° W 19:26:16 10° NW visible
31 Jan 9.4 06:41:16 10° NE 06:43:58 21° E 06:46:42 10° SE visible
31 Jan 8.3 18:56:30 10° SSW 18:59:44 35° W 19:02:58 10° NNW visible
01 Feb 10.1 06:18:31 10° ENE 06:20:04 12° E 06:21:36 10° ESE visible
01 Feb 6.9 18:32:31 10° S 18:35:58 67° WSW 18:39:25 10° NNW visible
